Find Starlink 30421

NORAD ID: 58107 Int'l Des: 2023-161 Owner: SPXS Country: US Constellation: starlink operational
LEOCIRCULAR

現在のビュー

3D地球を読み込み中...

About Starlink 30421

Starlink 30421 (NORAD 58107) is a starlink constellation satellite (v2 mini) launched Oct 21, 2023 by SPXS of US. It operates in LEO, CIRCULAR orbit with a mass of 730.00 kg.

次回通過

Passes for default location (London). Set your location on the main map for personalized predictions.

高度履歴

Loading altitude history...

軌道要素

1 58107U 23161L 26236.30736435 .00000685 00000-0 31413-4 0 9999
2 58107 53.1589 90.5224 0001449 83.8433 276.2735 15.34392728160310
Epoch: Aug 24, 2026 • Age: 28 hours

現在のステータス

高度 467.1 km
遠地点 / 近地点 N/A
速度 7.64 km/s
衛星直下点 47.93°N, 10.27°W
打ち上げ日 Oct 21, 2023
運用期間 2.8 years
タイプ internet

技術仕様

分類 Payload
質量 730.00 kg
乾燥質量 700.00 kg
総質量 730.00 kg
長さ 0.30 m
直径 4.10 m
スパン 29.00 m
形状 Box + pan
製造者 SPXS
バスタイプ Starlink V2M
フェーズステータス In Orbit
所有者/国 SPXS/US

Most Searched